Weather History for Mount Holly, NJ

Change the Weather History Date:

Sunday, February 3, 2013

  Actual Average (KWRI) Record (KWRI)
Temperature  
Mean Temperature 26 °F -  
Max Temperature 30 °F 40 °F 62 °F (2006)
Min Temperature 23 °F 23 °F 14 °F (2000)
Degree Days  
Heating Degree Days 38    
Moisture  
Dew Point 21 °F    
Average Humidity 82    
Maximum Humidity 100    
Minimum Humidity 61    
Precipitation  
Precipitation 0.03 in - - ()
Sea Level Pressure  
Sea Level Pressure 29.92 in    
Wind  
Wind Speed 2 mph (NNW)    
Max Wind Speed 8 mph    
Max Gust Speed 17 mph    
Visibility 7 miles    
Events Fog , Snow    
Averages and records for this station are not official NWS values.
T = Trace of Precipitation, MM = Missing Value Source: NWS Daily Summary

Daily Weather History Graph

Daily Weather History Graph

Search for Another Location

Airport:

Trip Planner

Search our weather history database for the weather conditions in past years. The results will help you decide how hot, cold, wet, or windy it might be!

Date:

Astronomy

Feb. 03, 2013 Rise Set
Actual Time 7:05 AM EST 5:21 PM EST
Civil Twilight 6:37 AM EST 5:49 PM EST
Nautical Twilight 6:04 AM EST 6:22 PM EST
Astronomical Twilight 5:33 AM EST 6:53 PM EST
Moon 12:30 AM EST (2/3) 10:56 AM EST (2/3)
Length of Visible Light 11h 12m
Length of Day
10h 15m
Waning Gibbous, 49% of the Moon is Illuminated
Feb 3
Waning Gibbous
Feb 10
New
Feb 17
First Quarter
Feb 25
Full
Mar 4
Last Quarter

Hourly Weather History & Observations

Time (EST) Temp. Windchill Dew Point Humidity Pressure Visibility Wind Dir Wind Speed Gust Speed Precip Events Conditions
12:04 AM 24.8 °F - 21.2 °F 86% 30.05 in 3.0 mi Calm Calm - 0.00 in Snow Light Snow
12:18 AM 24.8 °F - 21.2 °F 86% 30.05 in 2.5 mi Calm Calm - 0.00 in Snow Light Snow
12:35 AM 24.8 °F - 21.2 °F 86% 30.04 in 3.0 mi Calm Calm - 0.00 in Snow Light Snow
12:51 AM 24.8 °F - 23.0 °F 93% 30.03 in 2.0 mi Calm Calm - 0.00 in Snow Light Snow
12:54 AM 25.0 °F - 23.0 °F 92% 30.04 in 1.8 mi Calm Calm - 0.00 in Snow Light Snow
1:13 AM 24.8 °F - 21.2 °F 86% 30.02 in 2.5 mi Calm Calm - 0.00 in Snow Light Snow
1:32 AM 24.8 °F - 21.2 °F 86% 30.01 in 3.0 mi Calm Calm - 0.00 in Snow Light Snow
1:54 AM 24.1 °F - 21.9 °F 91% 30.00 in 5.0 mi Calm Calm - 0.00 in   Overcast
2:52 AM 24.8 °F - 21.2 °F 86% 29.98 in 6.0 mi Calm Calm - N/A   Overcast
2:54 AM 24.1 °F - 21.9 °F 91% 29.99 in 5.0 mi Calm Calm - N/A   Overcast
3:27 AM 24.8 °F - 21.2 °F 86% 29.96 in 7.0 mi Calm Calm - 0.00 in   Overcast
3:54 AM 24.1 °F - 21.9 °F 91% 29.96 in 8.0 mi Calm Calm - 0.00 in   Overcast
4:28 AM 24.8 °F - 23.0 °F 93% 29.94 in 9.0 mi Calm Calm - N/A   Overcast
4:54 AM 24.1 °F - 21.0 °F 88% 29.94 in 9.0 mi Calm Calm - N/A   Overcast
5:54 AM 23.0 °F - 21.0 °F 92% 29.95 in 7.0 mi Calm Calm - N/A   Overcast
6:54 AM 23.0 °F - 21.0 °F 92% 29.96 in 8.0 mi Calm Calm - N/A   Overcast
7:03 AM 23.0 °F - 21.2 °F 93% 29.95 in 8.0 mi Calm Calm - N/A   Overcast
7:46 AM 24.8 °F 17.9 °F 21.2 °F 86% 29.96 in 8.0 mi ENE 5.8 mph - N/A   Overcast
7:54 AM 24.1 °F 18.2 °F 21.9 °F 91% 29.96 in 8.0 mi ENE 4.6 mph - N/A   Overcast
8:36 AM 24.8 °F 19.1 °F 21.2 °F 86% 29.96 in 10.0 mi NE 4.6 mph - N/A   Overcast
8:51 AM 24.8 °F 17.9 °F 19.4 °F 80% 29.96 in 10.0 mi NE 5.8 mph - N/A   Overcast
8:54 AM 25.0 °F 17.1 °F 19.9 °F 81% 29.96 in 10.0 mi NE 6.9 mph - N/A   Overcast
9:14 AM 24.8 °F 19.1 °F 19.4 °F 80% 29.95 in 10.0 mi NE 4.6 mph - N/A   Overcast
9:54 AM 26.1 °F 21.9 °F 19.9 °F 78% 29.95 in 10.0 mi North 3.5 mph - N/A   Mostly Cloudy
10:10 AM 26.6 °F 22.6 °F 19.4 °F 74% 29.94 in 10.0 mi NW 3.5 mph - 0.01 in   Partly Cloudy
10:54 AM 28.0 °F 24.2 °F 21.0 °F 75% 29.93 in 10.0 mi North 3.5 mph - 0.03 in   Clear
11:54 AM 28.9 °F 23.9 °F 21.0 °F 72% 29.89 in 10.0 mi NNE 4.6 mph - N/A   Scattered Clouds
12:54 PM 30.0 °F - 21.0 °F 69% 29.86 in 10.0 mi Calm Calm - N/A   Partly Cloudy
1:54 PM 30.9 °F 25.2 °F 21.9 °F 69% 29.84 in 10.0 mi NW 5.8 mph - N/A   Partly Cloudy
2:22 PM 30.2 °F 25.4 °F 21.2 °F 69% 29.83 in 10.0 mi West 4.6 mph - N/A   Mostly Cloudy
2:36 PM 30.2 °F 25.4 °F 21.2 °F 69% 29.83 in 10.0 mi West 4.6 mph - N/A   Mostly Cloudy
2:54 PM 30.0 °F 26.5 °F 19.9 °F 66% 29.83 in 10.0 mi WNW 3.5 mph - N/A   Partly Cloudy
3:54 PM 30.9 °F 27.5 °F 19.0 °F 61% 29.83 in 10.0 mi Variable 3.5 mph - N/A   Partly Cloudy
4:54 PM 30.0 °F 26.5 °F 19.0 °F 64% 29.83 in 10.0 mi WNW 3.5 mph - N/A   Clear
5:54 PM 28.0 °F - 19.0 °F 69% 29.83 in 10.0 mi Calm Calm - N/A   Clear
6:54 PM 25.0 °F - 18.0 °F 75% 29.84 in 10.0 mi Calm Calm - N/A   Clear
7:54 PM 24.1 °F - 18.0 °F 77% 29.85 in 10.0 mi Calm Calm - N/A   Clear
8:54 PM 23.0 °F - 18.0 °F 81% 29.85 in 9.0 mi Calm Calm - N/A   Overcast
9:54 PM 26.1 °F - 21.9 °F 84% 29.85 in 7.0 mi Calm Calm - N/A   Overcast
10:54 PM 28.0 °F 24.2 °F 21.9 °F 78% 29.85 in 3.0 mi SW 3.5 mph - 0.00 in Snow Light Snow
11:08 PM 28.4 °F 24.6 °F 23.0 °F 80% 29.85 in 2.5 mi SW 3.5 mph - 0.00 in Snow Light Snow
11:13 PM 28.4 °F 23.3 °F 23.0 °F 80% 29.85 in 1.8 mi Variable 4.6 mph - 0.00 in Snow Light Snow
11:18 PM 28.4 °F 21.2 °F 24.8 °F 86% 29.86 in 0.8 mi NW 6.9 mph - 0.00 in Snow Light Snow
11:30 PM 26.6 °F 21.2 °F 26.6 °F 100% 29.86 in 0.5 mi WNW 4.6 mph - 0.00 in Fog , Snow Snow
11:34 PM 28.4 °F 24.6 °F 26.6 °F 93% 29.86 in 1.0 mi West 3.5 mph - 0.00 in Snow Light Snow
11:42 PM 28.4 °F 22.2 °F 26.6 °F 93% 29.86 in 1.2 mi West 5.8 mph - 0.00 in Snow Light Snow
11:54 PM 28.9 °F 21.1 °F 26.1 °F 89% 29.87 in 1.2 mi WNW 8.1 mph 17.3 mph 0.00 in Snow Light Snow